Location: Kosice
(0.0000°N, 21.2500°E)
Time: 17:40:43
(UTC+01:00)

Cosmos 2112 Rocket - Pass Details

Date: 24 January 2021
Orbit: 757 x 786 km, 74.1° (Epoch: 01 March)

Event Time Altitude Azimuth Distance (km) Brightness Sun altitude
Rises 19:26:03 0° 341° (NNW) 3,199 7.2 -23.3°
Reaches altitude 10° 19:28:26 10° 337° (NNW) 2,275 6.5 -23.8°
Maximum altitude 19:33:30 60° 258° (WSW) 863 4.4 -25.0°
Drops below altitude 10° 19:38:36 10° 178° (S) 2,284 6.7 -26.2°
Sets 19:41:00 0° 175° (S) 3,213 7.4 -26.8°
